Find Starlink 32265

NORAD ID: 60415 Int'l Des: 2024-141 Owner: SPXS Country: US Constellation: starlink operational
LEOCIRCULAR

当前视图

正在加载3D地球...

About Starlink 32265

Starlink 32265 (NORAD 60415) is a starlink constellation satellite (v2 mini) launched Aug 10, 2024 by SPXS of US. It operates in LEO, CIRCULAR orbit with a mass of 730.00 kg.

关于 Starlink 32265

正在加载描述...

即将过境

Passes for default location (London). Set your location on the main map for personalized predictions.

高度历史

Loading altitude history...

两行轨道根数

1 60415U 24141T 26170.07204661 .00001566 00000-0 57509-4 0 9998
2 60415 53.1585 130.1964 0001358 94.4124 265.7034 15.34379103105122
Epoch: Jun 19, 2026 • Age: 7 hours

当前状态

高度 473.0 km
速度 7.63 km/s
星下点 -31.41°S, 65.82°W
发射日期 Aug 10, 2024
运行时间 1.8 years
类型 internet

技术详情

分类 Payload
质量 730.00 kg
干质量 700.00 kg
总质量 730.00 kg
长度 0.30 m
直径 4.10 m
跨度 29.00 m
形状 Box + pan
制造商 SPXS
平台类型 Starlink V2M
阶段状态 In Orbit
所有者/国家 SPXS/US

Most Searched